• In Lithuania
  • List of Countries
  • For 7 days
  • Water Temperature
  • Satellite Maps
  • Weather Map
  • Weather Widgets
  • user-avatar
    Login

    Hourly Weather Kulyub

    Today, 23 November, Thursday

    Time Temperature Precipitation Wind Pressure Humidity
    00:00 +13°C° 0 mm 2 mps 718 mmHg 12%
    01:00 +13°C° 0 mm 2 mps 718 mmHg 12%
    02:00 +12°C° 0 mm 2 mps 718 mmHg 12%
    03:00 +12°C° 0 mm 2 mps 718 mmHg 12%
    04:00 +12°C° 0 mm 2 mps 718 mmHg 12%
    05:00 +12°C° 0 mm 2 mps 718 mmHg 12%
    06:00 +12°C° 0 mm 2 mps 718 mmHg 11%
    07:00 +12°C° 0 mm 2 mps 718 mmHg 11%
    08:00 +12°C° 0 mm 2 mps 718 mmHg 10%
    09:00 +15°C° 0 mm 1 mps 719 mmHg 9%
    10:00 +18°C° 0 mm 1 mps 719 mmHg 8%
    11:00 +21°C° 0 mm 1 mps 719 mmHg 6%
    12:00 +22°C° 0 mm 1 mps 719 mmHg 6%
    13:00 +23°C° 0 mm 1 mps 719 mmHg 5%
    14:00 +23°C° 0 mm 1 mps 719 mmHg 5%
    15:00 +21°C° 0 mm 1 mps 719 mmHg 6%
    16:00 +20°C° 0 mm 1 mps 719 mmHg 8%
    17:00 +18°C° 0 mm 1 mps 719 mmHg 9%
    18:00 +16°C° 0 mm 1 mps 719 mmHg 9%
    19:00 +15°C° 0 mm 1 mps 719 mmHg 9%
    20:00 +15°C° 0 mm 1 mps 720 mmHg 9%
    21:00 +14°C° 0 mm 2 mps 720 mmHg 9%
    22:00 +14°C° 0 mm 2 mps 720 mmHg 9%
    23:00 +14°C° 0 mm 2 mps 719 mmHg 9%

    Tomorrow, 24 November, Friday

    Time Temperature Precipitation Wind Pressure Humidity
    00:00 +13°C° 0 mm 2 mps 719 mmHg 9%
    01:00 +13°C° 0 mm 2 mps 719 mmHg 9%
    02:00 +13°C° 0 mm 2 mps 719 mmHg 9%
    03:00 +13°C° 0 mm 2 mps 719 mmHg 9%
    04:00 +13°C° 0 mm 2 mps 719 mmHg 9%
    05:00 +13°C° 0 mm 2 mps 719 mmHg 9%
    06:00 +13°C° 0 mm 2 mps 719 mmHg 9%
    07:00 +13°C° 0 mm 2 mps 719 mmHg 9%
    08:00 +13°C° 0 mm 2 mps 719 mmHg 9%
    09:00 +16°C° 0 mm 2 mps 719 mmHg 8%
    10:00 +20°C° 0 mm 1 mps 719 mmHg 7%
    11:00 +22°C° 0 mm 1 mps 720 mmHg 6%
    12:00 +23°C° 0 mm 1 mps 719 mmHg 6%
    13:00 +24°C° 0 mm 1 mps 719 mmHg 6%
    14:00 +24°C° 0 mm 1 mps 719 mmHg 5%
    15:00 +23°C° 0 mm 1 mps 719 mmHg 7%
    16:00 +20°C° 0 mm 2 mps 719 mmHg 8%
    17:00 +19°C° 0 mm 2 mps 719 mmHg 9%
    18:00 +18°C° 0 mm 2 mps 720 mmHg 9%
    19:00 +19°C° 0 mm 1 mps 721 mmHg 9%
    20:00 +18°C° 0 mm 1 mps 721 mmHg 10%
    21:00 +18°C° 0 mm 1 mps 721 mmHg 10%
    22:00 +18°C° 0 mm 1 mps 721 mmHg 10%
    23:00 +16°C° 0 mm 2 mps 721 mmHg 10%

    Day after tomorrow, 25 November, Saturday

    Time Temperature Precipitation Wind Pressure Humidity
    00:00 +16°C° 0 mm 2 mps 721 mmHg 11%
    01:00 +15°C° 0 mm 2 mps 721 mmHg 12%
    02:00 +14°C° 0 mm 2 mps 721 mmHg 13%
    03:00 +14°C° 0 mm 2 mps 720 mmHg 15%
    04:00 +14°C° 0 mm 2 mps 720 mmHg 16%
    05:00 +13°C° 0 mm 2 mps 719 mmHg 18%
    06:00 +14°C° 0 mm 2 mps 719 mmHg 18%
    07:00 +14°C° 0 mm 2 mps 719 mmHg 19%
    08:00 +14°C° 0 mm 2 mps 719 mmHg 19%
    09:00 +16°C° 0 mm 2 mps 719 mmHg 17%
    10:00 +20°C° 0 mm 1 mps 718 mmHg 15%
    11:00 +22°C° 0 mm 1 mps 718 mmHg 13%
    12:00 +22°C° 0 mm 1 mps 718 mmHg 13%
    13:00 +23°C° 0 mm 2 mps 718 mmHg 13%
    14:00 +23°C° 0 mm 2 mps 718 mmHg 13%
    15:00 +20°C° 0 mm 3 mps 718 mmHg 17%
    16:00 +19°C° 0 mm 4 mps 719 mmHg 21%
    17:00 +16°C° 0 mm 5 mps 720 mmHg 26%
    18:00 +14°C° 0.4 mm 5 mps 722 mmHg 37%
    19:00 +13°C° 0.4 mm 4 mps 723 mmHg 49%
    20:00 +12°C° 0.4 mm 3 mps 724 mmHg 61%
    21:00 +11°C° 0.5 mm 3 mps 725 mmHg 63%
    22:00 +12°C° 0.5 mm 2 mps 725 mmHg 65%
    23:00 +12°C° 0.5 mm 2 mps 726 mmHg 67%

    26 November, Sunday

    Time Temperature Precipitation Wind Pressure Humidity
    00:00 +12°C° 0.1 mm 2 mps 726 mmHg 66%
    01:00 +12°C° 0.1 mm 2 mps 726 mmHg 65%
    02:00 +12°C° 0.1 mm 2 mps 726 mmHg 65%
    03:00 +10°C° 0 mm 2 mps 726 mmHg 64%
    04:00 +10°C° 0 mm 2 mps 726 mmHg 63%
    05:00 +10°C° 0 mm 2 mps 726 mmHg 62%
    06:00 +10°C° 0 mm 2 mps 726 mmHg 61%
    07:00 +11°C° 0 mm 1 mps 726 mmHg 60%
    08:00 +11°C° 0 mm 1 mps 726 mmHg 59%
    09:00 +12°C° 0 mm 1 mps 726 mmHg 54%
    10:00 +14°C° 0 mm 1 mps 726 mmHg 49%
    11:00 +15°C° 0 mm 2 mps 726 mmHg 44%
    12:00 +16°C° 0 mm 2 mps 726 mmHg 45%
    13:00 +16°C° 0 mm 3 mps 726 mmHg 46%
    14:00 +15°C° 0 mm 4 mps 726 mmHg 47%
    15:00 +14°C° 0.1 mm 4 mps 727 mmHg 53%
    16:00 +13°C° 0.1 mm 3 mps 728 mmHg 59%
    17:00 +12°C° 0.1 mm 3 mps 728 mmHg 65%
    18:00 +12°C° 0.2 mm 3 mps 729 mmHg 69%
    19:00 +12°C° 0.2 mm 2 mps 729 mmHg 73%
    20:00 +10°C° 0.2 mm 2 mps 730 mmHg 77%
    21:00 +11°C° 0 mm 1 mps 730 mmHg 78%
    22:00 +10°C° 0 mm 1 mps 730 mmHg 79%
    23:00 +10°C° 0 mm 1 mps 730 mmHg 80%

    27 November, Monday

    Time Temperature Precipitation Wind Pressure Humidity
    00:00 +9°C° 0 mm 1 mps 730 mmHg 81%
    01:00 +8°C° 0 mm 0 mps 729 mmHg 82%
    02:00 +8°C° 0 mm 0 mps 729 mmHg 82%
    03:00 +8°C° 0 mm 1 mps 729 mmHg 82%
    04:00 +8°C° 0 mm 1 mps 729 mmHg 82%
    05:00 +8°C° 0 mm 1 mps 728 mmHg 82%
    06:00 +8°C° 0 mm 1 mps 728 mmHg 79%
    07:00 +8°C° 0 mm 1 mps 728 mmHg 76%
    08:00 +9°C° 0 mm 1 mps 728 mmHg 72%
    09:00 +10°C° 0 mm 1 mps 727 mmHg 63%
    10:00 +12°C° 0 mm 1 mps 727 mmHg 53%
    11:00 +14°C° 0 mm 1 mps 726 mmHg 44%
    12:00 +15°C° 0 mm 1 mps 726 mmHg 39%
    13:00 +16°C° 0 mm 2 mps 725 mmHg 35%
    14:00 +16°C° 0 mm 2 mps 724 mmHg 30%
    15:00 +16°C° 0 mm 1 mps 724 mmHg 32%
    16:00 +15°C° 0 mm 1 mps 724 mmHg 35%
    17:00 +13°C° 0 mm 0 mps 724 mmHg 37%
    18:00 +12°C° 0 mm 0 mps 725 mmHg 37%
    19:00 +13°C° 0 mm 1 mps 725 mmHg 38%
    20:00 +13°C° 0 mm 1 mps 725 mmHg 38%
    21:00 +13°C° 0 mm 1 mps 725 mmHg 37%
    22:00 +13°C° 0 mm 1 mps 725 mmHg 37%
    23:00 +12°C° 0 mm 2 mps 725 mmHg 36%

    28 November, Tuesday

    Time Temperature Precipitation Wind Pressure Humidity
    00:00 +12°C° 0 mm 2 mps 725 mmHg 35%
    01:00 +12°C° 0 mm 2 mps 725 mmHg 34%
    02:00 +12°C° 0 mm 2 mps 725 mmHg 33%
    03:00 +10°C° 0 mm 2 mps 725 mmHg 34%
    04:00 +10°C° 0 mm 2 mps 724 mmHg 34%
    05:00 +10°C° 0 mm 2 mps 724 mmHg 34%
    06:00 +10°C° 0 mm 2 mps 724 mmHg 35%
    07:00 +10°C° 0 mm 2 mps 724 mmHg 36%
    08:00 +10°C° 0 mm 2 mps 725 mmHg 37%
    09:00 +13°C° 0 mm 2 mps 724 mmHg 33%
    10:00 +15°C° 0 mm 2 mps 724 mmHg 29%
    11:00 +17°C° 0 mm 2 mps 724 mmHg 24%
    12:00 +18°C° 0 mm 2 mps 723 mmHg 23%
    13:00 +19°C° 0 mm 2 mps 723 mmHg 22%
    14:00 +20°C° 0 mm 2 mps 722 mmHg 20%
    15:00 +18°C° 0 mm 2 mps 722 mmHg 23%
    16:00 +18°C° 0 mm 1 mps 722 mmHg 26%
    17:00 +16°C° 0 mm 1 mps 722 mmHg 29%
    18:00 +15°C° 0 mm 1 mps 722 mmHg 30%
    19:00 +14°C° 0 mm 1 mps 722 mmHg 32%
    20:00 +14°C° 0 mm 1 mps 723 mmHg 34%
    21:00 +14°C° 0 mm 1 mps 723 mmHg 34%
    22:00 +13°C° 0 mm 1 mps 723 mmHg 34%
    23:00 +13°C° 0 mm 1 mps 722 mmHg 34%
    Show more